Regional Weather Roundup
Issued by NWS Grand Forks, ND

Home | Current Version | Previous Version | Text Only | Print | Product List | Glossary Off
Versions: 1 2 3 4 5 6 7 8 9 10 11 12 13 14 15 16 17 18 19 20 21 22 23 24 25 26 27 28 29 30 31 32 33 34 35 36 37 38 39 40 41 42 43 44 45 46 47 48 49 50

000
ASUS43 KFGF 160510
RWRFGF
PRAIRIE TO PINES  WEATHER ROUNDUP
NATIONAL WEATHER SERVICE EASTERN NORTH DAKOTA/GRAND FORKS ND
1200 AM CDT WED APR 16 2014

 **SATELLITE DATA USED TO AUGMENT SKY COVER AT AUTOMATED STATIONS**
 *****  WEATHER ACROSS EASTERN NORTH DAKOTA  *****

CITY           SKY/WX    TMP DP  RH WIND       PRES   REMARKS
GRAND FORKS    CLOUDY    30  13  49 E15       29.97F WCI  19
GRAND FRKS AFB CLOUDY    29  15  57 E12       30.00F WCI  19
GRAND FRKS NWS   N/A     30 N/A N/A E14         N/A  WCI  20
DEVILS LAKE    CLOUDY    27  16  63 E20G26    29.94S WCI  13
FARGO          CLOUDY    33  14  45 E9        29.96F
WAHPETON ARPT  CLOUDY    32  14  47 E16G22    29.94F WCI  21
$$

 ***** WEATHER ACROSS CENTRAL AND WESTERN NORTH DAKOTA  *****

CITY           SKY/WX    TMP DP  RH WIND       PRES   REMARKS
BISMARCK       MOCLDY    29  19  66 E20       29.77S WCI  16
MINOT          LGT SNOW  25  22  88 E15G26    29.85S FOG     WCI  13
JAMESTOWN      CLOUDY    28  18  66 E18G31    29.86F WCI  15
MINOT AFB      LGT SNOW  26  24  96 E23G29    29.85S FOG     WCI  11
GARRISON         N/A     28  21  75 E24G30    29.79R WCI  14
WILLISTON        N/A    N/A N/A N/A MISG      29.74R
DICKINSON      CLOUDY    34  20  56 NE9       29.65R
HETTINGER      MOCLDY    37  22  54 E8        29.64S
$$

 *****  OTHER AIRPORT OBSERVATIONS IN OUR AREA  *****

CITY           SKY/WX    TMP DP  RH WIND       PRES   REMARKS
WALHALLA       FAIR      27  14  59 E8        30.04F WCI  18
GRAFTON AIRPOR MOCLDY    28  18  64 E14       30.03S WCI  17
VALLEY CITY AR NOT AVBL
CANDO          CLOUDY    27  16  63 E17       29.95S WCI  14
CAVALIER APRT  FAIR      27  14  59 E12       30.04F WCI  16
GWINNER        CLOUDY    32  18  55 E23G29    29.88F WCI  19
ROLLA          MIX PCPN  23  19  86 E16G23    29.96R WCI  10
 ***** THE ABOVE OBSERVATIONS ARE NON NWS ARE NOT QUALITY
       CONTROLLED AND MAY MIS-REPORT RAIN FOR SNOW...
$$

  *****  WEATHER ACROSS NORTHERN MINNESOTA  *****

CITY           SKY/WX    TMP DP  RH WIND       PRES   REMARKS
FLAG ISLAND    PTCLDY    16   9  73 CALM      30.09S
WARROAD        PTCLDY    18   9  68 E5        30.09S WCI  11
ROSEAU         PTCLDY    23  10  58 E9        30.08S WCI  13
HALLOCK        CLOUDY    27  12  54 E14       30.05F WCI  15
THF RVR FALLS  CLOUDY    27   9  46 E12       30.03F WCI  16
BAUDETTE       PTCLDY    19   7  59 NE5       30.09S WCI  12
WASKISH        CLOUDY    21   9  58 NE7       30.07S WCI  13
CROOKSTON      CLOUDY    28  10  47 E12       30.02F WCI  18
$$
  *****  WEATHER ACROSS CENTRAL AND WEST MINNESOTA  *****

CITY           SKY/WX    TMP DP  RH WIND       PRES   REMARKS
FOSSTON        CLOUDY    27   9  46 E7        30.01F WCI  19
BEMIDJI        CLOUDY    26   5  40 E7        30.03S WCI  18
PARK RAPIDS    CLOUDY    29   4  34 E8        30.00F WCI  21
ELBOW LAKE     CLOUDY    32  15  49 E16G23    29.94F WCI  21
WADENA         CLOUDY    28  10  47 E12       29.99S WCI  18
DETROIT LAKES  CLOUDY    32  10  40 SE9       29.98F WCI  24
MOORHEAD       NOT AVBL
FERGUS FALLS   CLOUDY    30  12  47 SE16G24   29.94F WCI  19
MORRIS MN      CLOUDY    34  12  40 E20G25    29.92S WCI  22
STAPLES        CLOUDY    28   3  34 E7        30.01F WCI  21
$$
  *****  WEATHER ELSEWHERE ACROSS MINNESOTA  *****

CITY           SKY/WX    TMP DP  RH WIND       PRES   REMARKS
DULUTH         CLEAR     22   9  57 CALM      30.08S
INTRNTL FALLS  CLEAR     15   9  76 CALM      30.10R
ELY            CLEAR     12   7  79 CALM      30.09S
CLOQUET        CLEAR    N/A N/A N/A CALM      30.08S
WHEATON        CLOUDY    36  18  48 E20G26    29.93F
BRAINERD       CLOUDY    32   5  32 VRB3      30.04F
HIBBING        PTCLDY    19  12  74 CALM      30.07S
ALEXANDRIA     CLOUDY    31  12  45 E15       29.97F WCI  20
SAINT CLOUD    CLOUDY    33   6  32 E7        30.03F
MINNEAPOLIS    CLOUDY    34  15  46 SE12      30.06F
$$

  *****  WEATHER ACROSS SOUTH DAKOTA  *****

CITY           SKY/WX    TMP DP  RH WIND       PRES   REMARKS
SIOUX FALLS    CLOUDY    40  26  57 SE13G25   29.75F
BROOKINGS      NOT AVBL
WATERTOWN      CLOUDY    34  21  59 SE17G25   29.75F WCI  23
HURON          CLOUDY    42  25  50 SE20G26   29.65F
SISSETON         N/A     32  15  49 SE21G28   29.87F WCI  20
ABERDEEN       CLOUDY    33  17  51 E22G28    29.77F WCI  21
MITCHELL       CLOUDY    43  27  53 SE22G30   29.64F
PIERRE         CLOUDY    47  29  49 E16       29.52F
MOBRIDGE       MOCLDY    33  18  53 E28G39    29.60F WCI  20
RAPID CITY     CLOUDY    47  37  68 NW30G38   29.59R
$$

  *****  SOME WEATHER IN NEARBY STATES *****

CITY           SKY/WX    TMP DP  RH WIND       PRES   REMARKS
GLASGOW MT     MOCLDY    37  21  52 NE9       29.71R
GREAT FALLS MT CLOUDY    37  34  89 NW3       29.85S
CHEYENNE WY    CLOUDY    43  24  47 SW12      29.70S
SCOTTSBLUFF NE CLOUDY    58  26  29 W14       29.59F
OMAHA NE       CLOUDY    46  30  53 S20       29.84F
DES MOINES IA  PTCLDY    40  24  53 SE13      29.99F
DAVENPORT IA   CLEAR     29  17  61 E8        30.16S WCI  21
CHICAGO IL     CLEAR     30  19  63 S5        30.20R
EAU CLAIRE WI  CLOUDY    30  12  47 SE5       30.11F
LA CROSSE WI   CLOUDY    32  18  56 E6        30.13F
$$

  *****  SOME NATIONAL WEATHER *****

CITY           SKY/WX    TMP DP  RH WIND       PRES   REMARKS
LA GUARDIA NY  LGTSLEET  34  31  88 NW15      29.93R FOG     WCI  24
RALEIGH NC     PTCLDY    39  27  62 VRB3      30.04R
ATLANTA GA     PTCLDY    38  26  62 NW9       30.11R
NEW ORLEANS LA CLEAR     51  34  52 N21G28    30.17F
OKLAHOMA CITY  MOCLDY    50  23  34 S14       30.02F
ALBUQUERQUE NM PTCLDY    57   8  14 S17       29.92S
SALT LAKE CITY CLOUDY    52  26  36 N8        29.93R
LOS ANGELES CA MOCLDY    58  53  84 W7        29.88R
BOISE ID       PTCLDY    47  14  26 N3        29.99S
SEATTLE WA     CLOUDY    50  29  44 SW8       30.11F
$$

*** WEATHER ACROSS MANITOBA...SASKATCHEWAN AND ONTARIO ***
                ***ONTARIO***

CITY           SKY/WX    TMP DP  RH WIND       PRES   REMARKS
GERALDTON      CLEAR      5  -2  72 W3        30.08R
THUNDER BAY    CLEAR     14   9  79 NW2       30.16R
SIOUX LOOKOUT  CLEAR      1  -2  85 CALM      30.10R
TORONTO        CLEAR     23  10  58 NW15      30.20R WCI  10
BIG TROUT LK   CLEAR      0  -8  71 NW6       30.11R WCI -12
PICKLE LAKE    NOT AVBL
DRYDEN         CLEAR     12   3  67 E3        30.10R
KENORA         PTCLDY    14  -2  48 CALM      30.10R
$$
                *** MANITOBA***

CITY           SKY/WX    TMP DP  RH WIND       PRES   REMARKS
BRANDON        CLOUDY    21  16  79 E17       30.04R WCI   7
DAUPHIN        PTCLDY    21  10  63 SE7       30.12R WCI  13
ISLAND LAKE    CLEAR     10   0  61 N3        30.19R
PILOT MOUND      N/A     23  16  74 E13G18      N/A  WCI  11
THE PAS        CLEAR      9  -6  52 NE2       30.20R
THOMPSON       CLEAR      1  -8  66 N7        30.27R WCI -11
WINNIPEG       NOT AVBL
LYNN LAKE      CLEAR      3  -4  72 N7        30.28R WCI  -9
CHURCHILL      CRYSTALS   0  -4  85 NW17      30.27S WCI -21
GILLAM         CLEAR     -4  -9  77 CALM      30.26R
$$
                ***SASKATCHEWAN***

CITY           SKY/WX    TMP DP  RH WIND       PRES   REMARKS
ESTEVAN        FLURRIES  27  23  86 E15G22    29.87R WCI  15
KINDERSLEY     CLOUDY    28  23  80 E15       29.92R WCI  17
LLOYDMINSTER   FLURRIES  25  23  93 E7        30.01R WCI  17
PRINCE ALBERT  PTCLDY    21   9  58 E13       30.08R WCI   9
REGINA         MOCLDY    25  19  80 E18G25    29.92R WCI  11
YORKTON        MOCLDY    21  12  68 E12       30.03R WCI   9
N. BATTLEFORD  LGT SNOW  25  23  93 E12       30.04R WCI  14
LA RONGE       CLEAR     14   1  57 NE10      30.18R WCI   1
SASKATOON      FLURRIES  25  19  80 E15       30.02R WCI  12
SWIFT CURRENT  CLOUDY    27  25  93 E15G22    29.84R WCI  15
$$
NOTE: THESE ARE AUTOMATED STATIONS WITH LIMITED QUALITY CONTROL
      "FAIR" INDICATES FEW OR NO CLOUDS BELOW 12,000 FEET WITH NO
      SIGNIFICANT WEATHER AND/OR OBSTRUCTIONS TO VISIBILITY.
      SKY/WX - SKY CONDITION AND SIGNIFICANT WEATHER.
      TMP - AIR TEMPERATURE.    DP   - DEWPOINT TEMPERATURE.
      RH  - RELATIVE HUMIDITY.  PRES - PRESSURE.
      HX  - HEAT INDEX.         WCI  - WIND CHILL INDEX.
$



USA.gov is the U.S. government's official web portal to all federal, state and local government web resources and services.